Weather in Vilkija

Lithuania     55°02′31″N   23°35′14″E
temp.,
°C
wind,
m/s
gust,
m/s
humid.,
%
clouds,
%
prec.,
mm/h
press.,
hPa
HPBL,
m
24 september, fri
fri2400:00+12ssw81693100 6.8 9921029
03:00+8wsw61491100 12.8 9901195
06:00+9wnw71595100 6.3 990970
09:00+10wnw6158585 6.6 9931227
12:00+9wnw71386100 0.4 9961211
15:00+10wnw71482100 0.6 9971146
18:00+11wnw6128099 0.0 10001117
21:00+11wnw51283100 0.0 1003773
25 september, sat
sat2500:00+10w41184100 0.0 1005593
03:00+10sw31083100 0.0 1005359
06:00+12sw51395100 0.1 1004778
09:00+14wsw6139194 0.3 1004939
12:00+14w71287100 0.3 10051129
15:00+15w6118199 0.7 10071228
18:00+14wnw5107590 0.3 1010939
21:00+11wnw411860 0.3 1013341
26 september, sun
sun2600:00+8wnw38960 0.0 1016191
03:00+8nw24972 0.0 101886
06:00+7nnw22954 0.0 102028
09:00+9n24805 0.0 1022139
12:00+14n24555 0.0 1023745
15:00+16n23485 0.0 10241103
18:00+14nne12625 0.0 102323
21:00+9ne22756 0.0 102517
27 september, mon
mon2700:00+8ene23837 0.0 102544
03:00+7ene238999 0.0 102643
06:00+6e239266 0.0 102661
09:00+8e258599 0.0 1027168
12:00+13ese356496 0.0 1027644
15:00+15ese345462 0.0 1027970
18:00+13e2568100 0.0 1026181
21:00+9ese378242 0.0 1027131
28 september, tue
tue2800:00+8ese378754 0.0 1028131
03:00+7ese369017 0.0 1028110
06:00+6ese259313 0.0 102997
09:00+8ese37845 0.0 1030204
12:00+14se46605 0.0 1030937
15:00+15se455221 0.0 10291391
18:00+14se36625 0.0 1029242
21:00+9ese23775 0.0 103051